Vicksburg, LA

7:40 PM CDT on March 30, 2017 (GMT -0500)
Vicksburg Tallulah Regional

Weather History for KTVR - April, 2013

Change the Weather History Date:

Thursday, April 18, 2013

  Actual Average Record
Temperature  
Mean Temperature 67 °F 65 °F  
Max Temperature 84 °F 77 °F 91 °F (2006)
Min Temperature 50 °F 54 °F 37 °F (1997)
Degree Days  
Heating Degree Days 0 3  
Month to date heating degree days 71 77  
Since 1 July heating degree days 2227 2318  
Cooling Degree Days 2 3  
Month to date cooling degree days 71 42  
Year to date cooling degree days 96 74  
Growing Degree Days 16 (Base 50)    
Moisture  
Dew Point 62 °F    
Average Humidity 81    
Maximum Humidity 97    
Minimum Humidity 65    
Precipitation  
Precipitation 0.85 in 0.18 in 2.64 in (1973)
Month to date precipitation 3.22 3.01  
Year to date precipitation 29.01 18.38  
Sea Level Pressure  
Sea Level Pressure 29.84 in    
Wind  
Wind Speed 14 mph (SW)    
Max Wind Speed 24 mph    
Max Gust Speed 36 mph    
Visibility 8 miles    
Events Rain , Thunderstorm    
T = Trace of Precipitation, MM = Missing Value Source: NWS Daily Summary

Daily Weather History Graph

Daily Weather History Graph

Search for Another Location

Airport or City:

Trip Planner

Search our weather history database for the weather conditions in past years. The results will help you decide how hot, cold, wet, or windy it might be!

Date:

Astronomy

Apr. 18, 2013 Rise Set
Actual Time 6:31 AM CDT 7:36 PM CDT
Civil Twilight 6:05 AM CDT 8:01 PM CDT
Nautical Twilight 5:35 AM CDT 8:31 PM CDT
Astronomical Twilight 5:04 AM CDT 9:02 PM CDT
Moon 12:46 PM CDT (4/18) 1:46 AM CDT (4/18)
Length of Visible Light 13h 55m
Length of Day
13h 04m
First Quarter, 52% of the Moon is Illuminated
Apr 18
First Quarter
Apr 25
Full
May 2
Last Quarter
May 9
New
May 17
First Quarter

Hourly Weather History & Observations

Time (CDT) Temp. Heat Index Dew Point Humidity Pressure Visibility Wind Dir Wind Speed Gust Speed Precip Events Conditions
12:53 AM 75.0 °F - 68.0 °F 79% 29.92 in 10.0 mi SSE 13.8 mph - N/A   Mostly Cloudy
1:00 AM 75.2 °F - 68.0 °F 78% 29.90 in 10.0 mi SSE 18.4 mph 24.2 mph N/A   Mostly Cloudy
1:53 AM 75.0 °F - 66.9 °F 76% 29.90 in 10.0 mi South 16.1 mph 23.0 mph N/A   Mostly Cloudy
2:53 AM 73.9 °F - 66.9 °F 79% 29.88 in 10.0 mi South 12.7 mph - N/A   Overcast
3:53 AM 73.0 °F - 66.9 °F 81% 29.87 in 10.0 mi South 11.5 mph - N/A   Mostly Cloudy
4:22 AM 73.4 °F - 66.2 °F 78% 29.84 in 10.0 mi SSE 13.8 mph - N/A   Mostly Cloudy
4:53 AM 73.0 °F - 66.0 °F 79% 29.83 in 10.0 mi SSE 15.0 mph 23.0 mph N/A   Mostly Cloudy
5:53 AM 73.0 °F - 66.0 °F 79% 29.83 in 10.0 mi SSE 12.7 mph 23.0 mph N/A   Clear
6:53 AM 72.0 °F - 66.0 °F 81% 29.84 in 10.0 mi SSE 15.0 mph - N/A   Clear
7:35 AM 73.4 °F - 66.2 °F 78% 29.84 in 10.0 mi SSE 13.8 mph - N/A   Mostly Cloudy
7:53 AM 73.0 °F - 66.9 °F 81% 29.86 in 10.0 mi SSE 15.0 mph - N/A   Overcast
8:53 AM 73.9 °F - 66.0 °F 76% 29.86 in 10.0 mi SSE 15.0 mph 23.0 mph N/A   Overcast
9:53 AM 75.0 °F - 66.9 °F 76% 29.86 in 10.0 mi South 16.1 mph 23.0 mph N/A   Overcast
10:01 AM 75.2 °F - 66.2 °F 73% 29.84 in 10.0 mi South 16.1 mph - N/A   Overcast
10:53 AM 77.0 °F - 68.0 °F 74% 29.86 in 10.0 mi South 20.7 mph 24.2 mph N/A   Overcast
11:53 AM 78.1 °F - 68.0 °F 71% 29.86 in 10.0 mi South 17.3 mph 25.3 mph N/A   Overcast
12:53 PM 79.0 °F - 68.0 °F 69% 29.84 in 10.0 mi South 15.0 mph 21.9 mph N/A   Overcast
1:53 PM 80.1 °F 82.9 °F 69.1 °F 69% 29.80 in 10.0 mi SSE 16.1 mph - N/A   Mostly Cloudy
2:53 PM 82.9 °F 86.5 °F 69.1 °F 63% 29.75 in 10.0 mi South 20.7 mph 27.6 mph N/A   Mostly Cloudy
3:53 PM 80.1 °F 82.9 °F 69.1 °F 69% 29.71 in 10.0 mi South 21.9 mph 28.8 mph N/A   Mostly Cloudy
4:53 PM 80.1 °F 82.9 °F 69.1 °F 69% 29.68 in 10.0 mi South 17.3 mph 26.5 mph N/A   Overcast
5:17 PM 80.6 °F 83.9 °F 69.8 °F 70% 29.67 in 10.0 mi South 17.3 mph 28.8 mph N/A Thunderstorm Thunderstorm
5:53 PM 78.1 °F - 70.0 °F 76% 29.71 in 5.0 mi SSW 10.4 mph 20.7 mph 0.07 in Rain , Thunderstorm Light Rain
5:57 PM 75.2 °F - 71.6 °F 89% 29.69 in 1.8 mi SSW 13.8 mph 26.5 mph 0.04 in Rain , Thunderstorm Heavy Rain
6:04 PM 75.2 °F - 71.6 °F 89% 29.69 in 2.5 mi SW 6.9 mph 26.5 mph 0.04 in Rain Light Rain
6:11 PM 73.4 °F - 68.0 °F 83% 29.70 in 10.0 mi WSW 15.0 mph 28.8 mph 0.04 in   Overcast
6:23 PM 68.0 °F - 66.2 °F 94% 29.74 in 10.0 mi West 18.4 mph 25.3 mph 0.04 in   Overcast
6:53 PM 66.0 °F - 64.0 °F 93% 29.75 in 6.0 mi WNW 8.1 mph 19.6 mph 0.14 in Rain Light Rain
7:01 PM 66.2 °F - 64.4 °F 94% 29.74 in 7.0 mi West 9.2 mph - 0.01 in Rain Rain
7:32 PM 62.6 °F - 60.8 °F 94% 29.77 in 10.0 mi WNW 15.0 mph 24.2 mph 0.04 in Rain Light Rain
7:53 PM 61.0 °F - 59.0 °F 93% 29.81 in 10.0 mi WNW 11.5 mph 21.9 mph 0.04 in Rain Light Rain
8:24 PM 60.8 °F - 57.2 °F 88% 29.81 in 10.0 mi NW 16.1 mph 24.2 mph 0.03 in Rain , Thunderstorm Light Rain
8:39 PM 57.2 °F - 57.2 °F 100% 29.84 in 2.5 mi WNW 13.8 mph 24.2 mph 0.13 in Rain Heavy Rain
8:43 PM 57.2 °F - 55.4 °F 94% 29.86 in 2.0 mi West 11.5 mph 23.0 mph 0.16 in Rain , Thunderstorm Heavy Rain
8:53 PM 57.0 °F - 55.9 °F 96% 29.88 in 3.0 mi WNW 11.5 mph 19.6 mph 0.19 in Rain , Thunderstorm Heavy Rain
9:04 PM 57.2 °F - 55.4 °F 94% 29.85 in 8.0 mi WNW 12.7 mph 21.9 mph 0.02 in Rain Light Rain
9:20 PM 55.4 °F - 55.4 °F 100% 29.85 in 10.0 mi NW 9.2 mph - 0.03 in Rain Light Rain
9:32 PM 55.4 °F - 55.4 °F 100% 29.87 in 10.0 mi WNW 10.4 mph - 0.04 in Rain , Thunderstorm Light Rain
9:53 PM 55.0 °F - 54.0 °F 96% 29.94 in 2.5 mi WNW 10.4 mph 16.1 mph 0.17 in Rain , Thunderstorm Heavy Thunderstorms and Rain
9:58 PM 55.4 °F - 53.6 °F 94% 29.87 in 3.0 mi NNW 6.9 mph - 0.03 in Rain , Thunderstorm Heavy Thunderstorms and Rain
10:17 PM 55.4 °F - 53.6 °F 94% 29.92 in 8.0 mi West 11.5 mph - 0.06 in Rain Rain
10:46 PM 53.6 °F - 53.6 °F 100% 29.93 in 4.0 mi WNW 11.5 mph 17.3 mph 0.13 in Rain , Thunderstorm Rain
10:53 PM 54.0 °F - 53.1 °F 97% 29.96 in 2.5 mi West 9.2 mph 17.3 mph 0.16 in Rain , Thunderstorm Heavy Thunderstorms and Rain
11:05 PM 53.6 °F - 51.8 °F 94% 29.91 in 4.0 mi NW 10.4 mph 18.4 mph 0.05 in Rain , Thunderstorm Rain
11:19 PM 53.6 °F - 51.8 °F 94% 29.93 in 8.0 mi WNW 10.4 mph 20.7 mph 0.07 in Rain , Thunderstorm Light Rain
11:34 PM 53.6 °F - 51.8 °F 94% 29.95 in 10.0 mi WNW 9.2 mph - 0.07 in Rain Light Rain
11:45 PM 51.8 °F - 50.0 °F 94% 29.94 in 10.0 mi NW 15.0 mph 24.2 mph 0.07 in Rain Light Rain
11:53 PM 51.1 °F - 48.9 °F 92% 29.95 in 10.0 mi NW 11.5 mph 24.2 mph 0.07 in Rain Light Rain